Alijar, Spain

2:03 AM CET on February 20, 2017 (GMT +0100)
Rota Navy

Weather History for LERT - June, 2013

Change the Weather History Date:

Monday, June 24, 2013

  Actual Average Record
Temperature  
Mean Temperature 79 °F -  
Max Temperature 89 °F 79 °F 93 °F (2012)
Min Temperature 69 °F 64 °F 46 °F (1997)
Cooling Degree Days 14    
Growing Degree Days 29 (Base 50)    
Moisture  
Dew Point 49 °F    
Average Humidity 34    
Maximum Humidity 47    
Minimum Humidity 24    
Precipitation  
Precipitation 0.00 in - - ()
Sea Level Pressure  
Sea Level Pressure 29.99 in    
Wind  
Wind Speed 15 mph ()    
Max Wind Speed 25 mph    
Max Gust Speed -    
Averages and records for this station are not official NWS values.
T = Trace of Precipitation, MM = Missing Value Source: Averaged Metar Reports

Daily Weather History Graph

Daily Weather History Graph

Search for Another Location

Airport or City:

Trip Planner

Search our weather history database for the weather conditions in past years. The results will help you decide how hot, cold, wet, or windy it might be!

Date:

Astronomy

Jun. 24, 2013 Rise Set
Actual Time 7:07 AM CEST 9:47 PM CEST
Civil Twilight 6:37 AM CEST 10:18 PM CEST
Nautical Twilight 5:59 AM CEST 10:56 PM CEST
Astronomical Twilight 5:16 AM CEST 11:39 PM CEST
Moon 10:42 PM CEST (6/24) 8:16 AM CEST (6/24)
Length of Visible Light 15h 41m
Length of Day
14h 39m
Full, 99% of the Moon is Illuminated
Jun 24
Full
Jun 30
Last Quarter
Jul 8
New
Jul 16
First Quarter
Jul 22
Full

Hourly Weather History & Observations

Time (CEST) Temp. Heat Index Dew Point Humidity Pressure Visibility Wind Dir Wind Speed Gust Speed Precip Events Conditions
12:00 AM 78.8 °F - 46.4 °F 32% 29.98 in - ESE 13.8 mph - N/A   Clear
1:00 AM 77.0 °F - 46.4 °F 34% 29.98 in - ESE 17.3 mph - N/A   Clear
2:00 AM 75.2 °F - 46.4 °F 36% 29.98 in - ESE 15.0 mph - N/A   Clear
3:00 AM 75.2 °F - 48.2 °F 38% 29.98 in - ESE 12.7 mph - N/A   Clear
4:00 AM 75.2 °F - 46.4 °F 36% 29.98 in - ESE 13.8 mph - N/A   Clear
5:00 AM 73.4 °F - 48.2 °F 41% 29.98 in - East 12.7 mph - N/A   Clear
6:00 AM 71.6 °F - 46.4 °F 41% 29.98 in - East 12.7 mph - N/A   Clear
7:00 AM 69.8 °F - 48.2 °F 46% 29.98 in - East 10.4 mph - N/A   Clear
8:00 AM 71.6 °F - 46.4 °F 41% 30.01 in - East 10.4 mph - N/A   Clear
9:00 AM 77.0 °F - 46.4 °F 34% 30.01 in - East 10.4 mph - N/A   Clear
10:00 AM 80.6 °F - 46.4 °F 30% 30.01 in - ESE 18.4 mph - N/A   Clear
11:00 AM 82.4 °F - 46.4 °F 28% 30.01 in - ESE 23.0 mph - N/A   Clear
12:00 PM 86.0 °F - 46.4 °F 25% 30.01 in - ESE 23.0 mph - N/A   Clear
1:00 PM 87.8 °F - 48.2 °F 25% 30.01 in - ESE 19.6 mph - N/A   Clear
2:00 PM 89.6 °F - 48.2 °F 24% 30.01 in - ESE 19.6 mph - N/A   Clear
3:00 PM 89.6 °F - 48.2 °F 24% 30.01 in - SE 20.7 mph - N/A   Clear
4:00 PM 87.8 °F - 48.2 °F 25% 30.01 in - SE 20.7 mph - N/A   Clear
5:00 PM 87.8 °F - 50.0 °F 27% 29.98 in - ESE 25.3 mph - N/A   Clear
6:00 PM 87.8 °F - 48.2 °F 25% 29.98 in - ESE 25.3 mph - N/A   Clear
7:00 PM 86.0 °F - 50.0 °F 29% 29.95 in - ESE 24.2 mph - N/A   Clear
8:00 PM 82.4 °F 81.4 °F 53.6 °F 37% 29.95 in - ESE 24.2 mph - N/A   Clear
9:00 PM 78.8 °F - 53.6 °F 42% 29.95 in - ESE 23.0 mph - N/A   Clear
10:00 PM 75.2 °F - 53.6 °F 47% 29.98 in - ESE 23.0 mph - N/A   Clear
11:00 PM 75.2 °F - 53.6 °F 47% 29.98 in - ESE 21.9 mph - N/A   Clear